This is the latest recevied weather packets stored in our database for station/object WA4ORT. If no packets are shown the sender has not sent any weather packets the latest 10 day(s).
| Time | Temp. | Humidity | Pressure | Rain* | Wind** | Luminosity | Snow |
|---|---|---|---|---|---|---|---|
| 1777500990 | 27.22° C | - | - | 0 mm | 2.68 m/s, 271° | - | - |
| 1777500095 | 27.22° C | - | - | 0 mm | 3.58 m/s, 291° | - | - |
| 1777499201 | 27.22° C | - | - | 0 mm | 1.79 m/s, 253° | - | - |
| 1777498303 | 28.33° C | - | - | 0 mm | 4.02 m/s, 298° | - | - |
| 1777497408 | 28.33° C | - | - | 0 mm | 2.24 m/s, 239° | - | - |
| 1777496513 | 28.33° C | - | - | 0 mm | 2.68 m/s, 302° | - | - |
| 1777495616 | 28.33° C | - | - | 0 mm | 3.13 m/s, 276° | - | - |
| 1777494721 | 27.78° C | - | - | 0 mm | 3.13 m/s, 270° | - | - |
| 1777493826 | 28.33° C | - | - | 0 mm | 3.58 m/s, 319° | - | - |
| 1777492929 | 28.89° C | - | - | 0 mm | 3.58 m/s, 267° | - | - |
| 1777492034 | 28.89° C | - | - | 0 mm | 2.68 m/s, 271° | - | - |
| 1777491139 | 28.89° C | - | - | 0 mm | 1.79 m/s, 270° | - | - |
| 1777490241 | 28.33° C | - | - | 0 mm | 1.79 m/s, 302° | - | - |
| 1777489347 | 27.78° C | - | - | 0 mm | 3.13 m/s, 259° | - | - |
| 1777488452 | 27.78° C | - | - | 0 mm | 1.79 m/s, 269° | - | - |
| 1777487554 | 27.22° C | - | - | 0 mm | 2.68 m/s, 239° | - | - |
| 1777486660 | 27.22° C | - | - | 0 mm | 2.68 m/s, 277° | - | - |
| 1777485765 | 26.67° C | - | - | 0 mm | 2.68 m/s, 212° | - | - |
| 1777484867 | 26.67° C | - | - | 0 mm | 4.47 m/s, 205° | - | - |
| 1777483972 | 26.67° C | - | - | 0 mm | 2.24 m/s, 257° | - | - |
| 1777483078 | 26.11° C | - | - | 0 mm | 1.79 m/s, 293° | - | - |
| 1777482180 | 25.56° C | - | - | 0 mm | 3.13 m/s, 255° | - | - |
| 1777481286 | 25.56° C | - | - | 0 mm | 2.24 m/s, 143° | - | - |
| 1777480391 | 25° C | - | - | 0 mm | 2.24 m/s, 221° | - | - |
| 1777479493 | 25.56° C | - | - | 0 mm | 0.89 m/s, 269° | - | - |
* Rain latest hour (hover to see other rain measurements)
** Current wind speed in m/s (hover to see current wind gust speed)